Weather History for KRKD - March, 2014

Change the Weather History Date:

Friday, March 14, 2014

  Actual Average (WUND) Record (WUND)
Temperature  
Mean Temperature 19 °F -  
Max Temperature 35 °F - - (-1)
Min Temperature 3 °F - - (-1)
Degree Days  
Heating Degree Days 46    
Moisture  
Dew Point 9 °F    
Average Humidity 61    
Maximum Humidity 85    
Minimum Humidity 34    
Precipitation  
Precipitation 0.00 in - - ()
Sea Level Pressure  
Sea Level Pressure 29.99 in    
Wind  
Wind Speed 8 mph (WSW)    
Max Wind Speed 17 mph    
Max Gust Speed 25 mph    
Visibility 10 miles    
Events      
Averages and records for this station are not official NWS values.
T = Trace of Precipitation, MM = Missing Value Source: NWS Daily Summary

Daily Weather History Graph

Daily Weather History Graph

Search for Another Location

Airport or City:

Trip Planner

Search our weather history database for the weather conditions in past years. The results will help you decide how hot, cold, wet, or windy it might be!

Date:

Astronomy

Mar. 14, 2014 Rise Set
Actual Time 6:50 AM EDT 6:41 PM EDT
Civil Twilight 6:21 AM EDT 7:10 PM EDT
Nautical Twilight 5:48 AM EDT 7:43 PM EDT
Astronomical Twilight 5:14 AM EDT 8:17 PM EDT
Moon 4:57 PM EDT (3/14) 5:31 AM EDT (3/14)
Length of Visible Light 12h 48m
Length of Day
11h 50m
Waxing Gibbous, 96% of the Moon is Illuminated
Mar 14
Waxing Gibbous
Mar 16
Full
Mar 23
Last Quarter
Mar 30
New
Apr 7
First Quarter

Hourly Weather History & Observations

Time (EDT) Temp. Windchill Dew Point Humidity Pressure Visibility Wind Dir Wind Speed Gust Speed Precip Events Conditions
12:15 AM 12.2 °F -0.2 °F 3.2 °F 67% 29.79 in 10.0 mi West 9.2 mph - N/A   Clear
12:35 AM 12.2 °F -0.2 °F 3.2 °F 67% 29.80 in 10.0 mi West 9.2 mph - N/A   Clear
12:55 AM 12.2 °F 2.9 °F 3.2 °F 67% 29.81 in 10.0 mi West 5.8 mph - N/A   Clear
1:15 AM 12.2 °F 4.3 °F 3.2 °F 67% 29.83 in 10.0 mi West 4.6 mph - N/A   Clear
1:35 AM 10.4 °F 4.0 °F 3.2 °F 73% 29.84 in 10.0 mi WNW 3.5 mph - N/A   Clear
1:55 AM 10.4 °F 4.0 °F 1.4 °F 67% 29.85 in 10.0 mi West 3.5 mph - N/A   Clear
2:15 AM 8.6 °F 2.0 °F 3.2 °F 79% 29.86 in 10.0 mi West 3.5 mph - N/A   Clear
2:35 AM 8.6 °F 0.1 °F 3.2 °F 79% 29.87 in 10.0 mi West 4.6 mph - N/A   Clear
2:55 AM 8.6 °F 0.1 °F 3.2 °F 79% 29.88 in 10.0 mi West 4.6 mph - N/A   Clear
3:15 AM 10.4 °F 0.8 °F 3.2 °F 73% 29.89 in 10.0 mi West 5.8 mph - N/A   Clear
3:35 AM 8.6 °F 2.0 °F 1.4 °F 73% 29.89 in 10.0 mi WNW 3.5 mph - N/A   Clear
3:55 AM 8.6 °F - 3.2 °F 79% 29.91 in 10.0 mi Calm Calm - N/A   Clear
4:15 AM 6.8 °F - -0.4 °F 72% 29.92 in 10.0 mi Calm Calm - N/A   Clear
4:35 AM 6.8 °F - 1.4 °F 79% 29.93 in 10.0 mi Calm Calm - N/A   Clear
4:55 AM 6.8 °F - -0.4 °F 72% 29.95 in 10.0 mi Calm Calm - N/A   Clear
5:15 AM 5.0 °F -2.1 °F -0.4 °F 78% 29.96 in 10.0 mi West 3.5 mph - N/A   Clear
5:35 AM 8.6 °F 0.1 °F 3.2 °F 79% 29.98 in 10.0 mi WNW 4.6 mph - N/A   Clear
5:55 AM 8.6 °F -1.3 °F -0.4 °F 67% 29.99 in 10.0 mi WNW 5.8 mph - N/A   Clear
6:15 AM 8.6 °F 0.1 °F -0.4 °F 67% 30.00 in 10.0 mi NW 4.6 mph - N/A   Clear
6:35 AM 8.6 °F 2.0 °F -2.2 °F 62% 30.01 in 10.0 mi West 3.5 mph - N/A   Clear
6:55 AM 6.8 °F - 3.2 °F 85% 30.02 in 10.0 mi Calm Calm - N/A   Clear
7:15 AM 3.2 °F - -2.2 °F 78% 30.04 in 10.0 mi Calm Calm - N/A   Clear
7:35 AM 6.8 °F -0.1 °F 3.2 °F 85% 30.04 in 10.0 mi WNW 3.5 mph - N/A   Clear
7:55 AM 8.6 °F 2.0 °F 1.4 °F 73% 30.06 in 10.0 mi West 3.5 mph - N/A   Clear
8:15 AM 10.4 °F 2.2 °F 3.2 °F 73% 30.07 in 10.0 mi West 4.6 mph - N/A   Clear
8:35 AM 12.2 °F 1.7 °F -2.2 °F 53% 30.08 in 10.0 mi West 6.9 mph - N/A   Clear
8:55 AM 14.0 °F 3.9 °F -0.4 °F 53% 30.09 in 10.0 mi West 6.9 mph - N/A   Clear
9:15 AM 15.8 °F 6.1 °F -0.4 °F 49% 30.10 in 10.0 mi West 6.9 mph - N/A   Clear
9:35 AM 15.8 °F 5.1 °F -0.4 °F 49% 30.10 in 10.0 mi West 8.1 mph - N/A   Clear
9:55 AM 17.6 °F 7.3 °F -0.4 °F 45% 30.10 in 10.0 mi West 8.1 mph - N/A   Clear
10:15 AM 17.6 °F 6.4 °F -0.4 °F 45% 30.10 in 10.0 mi West 9.2 mph - N/A   Clear
10:35 AM 19.4 °F 9.5 °F -0.4 °F 42% 30.10 in 10.0 mi West 8.1 mph - N/A   Clear
10:55 AM 19.4 °F 8.6 °F -0.4 °F 42% 30.10 in 10.0 mi WNW 9.2 mph - N/A   Clear
11:15 AM 21.2 °F 12.6 °F -0.4 °F 39% 30.11 in 10.0 mi West 6.9 mph - N/A   Clear
11:35 AM 21.2 °F 10.9 °F 1.4 °F 42% 30.11 in 10.0 mi West 9.2 mph - N/A   Clear
11:55 AM 23.0 °F 14.7 °F 1.4 °F 39% 30.11 in 10.0 mi West 6.9 mph - N/A   Clear
12:15 PM 24.8 °F 16.9 °F 1.4 °F 36% 30.11 in 10.0 mi West 6.9 mph - N/A   Clear
12:35 PM 24.8 °F 14.6 °F 1.4 °F 36% 30.11 in 10.0 mi SW 10.4 mph - N/A   Clear
12:55 PM 24.8 °F 16.1 °F 3.2 °F 40% 30.10 in 10.0 mi SSW 8.1 mph - N/A   Clear
1:15 PM 26.6 °F 17.5 °F 1.4 °F 34% 30.09 in 10.0 mi SSW 9.2 mph - N/A   Clear
1:35 PM 26.6 °F 16.2 °F 6.8 °F 43% 30.08 in 10.0 mi SW 11.5 mph - N/A   Clear
1:55 PM 26.6 °F 16.2 °F 6.8 °F 43% 30.07 in 10.0 mi SSW 11.5 mph - N/A   Clear
2:15 PM 26.6 °F 15.2 °F 6.8 °F 43% 30.06 in 10.0 mi SSW 13.8 mph - N/A   Clear
2:35 PM 26.6 °F 15.2 °F 10.4 °F 51% 30.06 in 10.0 mi South 13.8 mph 20.7 mph N/A   Clear
2:55 PM 26.6 °F 15.2 °F 12.2 °F 55% 30.05 in 10.0 mi SSW 13.8 mph 18.4 mph N/A   Clear
3:15 PM 26.6 °F 16.8 °F 12.2 °F 55% 30.05 in 10.0 mi SSW 10.4 mph - N/A   Clear
3:35 PM 28.4 °F 17.5 °F 14.0 °F 55% 30.04 in 10.0 mi South 13.8 mph 17.3 mph N/A   Clear
3:55 PM 28.4 °F 18.0 °F 12.2 °F 51% 30.04 in 10.0 mi South 12.7 mph 19.6 mph N/A   Clear
4:15 PM 28.4 °F 18.5 °F 14.0 °F 55% 30.03 in 10.0 mi SSW 11.5 mph 20.7 mph N/A   Clear
4:35 PM 28.4 °F 18.0 °F 15.8 °F 59% 30.02 in 10.0 mi SSW 12.7 mph 18.4 mph N/A   Clear
4:55 PM 28.4 °F 19.7 °F 14.0 °F 55% 30.02 in 10.0 mi SW 9.2 mph 19.6 mph N/A   Partly Cloudy
5:15 PM 28.4 °F 16.6 °F 15.8 °F 59% 30.02 in 10.0 mi SW 16.1 mph 21.9 mph N/A   Scattered Clouds
5:35 PM 30.2 °F 21.3 °F 17.6 °F 60% 30.01 in 10.0 mi SW 10.4 mph 16.1 mph N/A   Mostly Cloudy
5:55 PM 28.4 °F 18.5 °F 14.0 °F 55% 30.00 in 10.0 mi SSW 11.5 mph 24.2 mph N/A   Scattered Clouds
6:15 PM 30.2 °F 21.3 °F 15.8 °F 55% 29.99 in 10.0 mi SSW 10.4 mph 17.3 mph N/A   Mostly Cloudy
6:35 PM 30.2 °F 20.8 °F 17.6 °F 60% 29.99 in 10.0 mi SSW 11.5 mph 17.3 mph N/A   Overcast
6:55 PM 30.2 °F 20.8 °F 19.4 °F 64% 29.98 in 10.0 mi SSW 11.5 mph 24.2 mph N/A   Overcast
7:15 PM 30.2 °F 19.3 °F 21.2 °F 69% 29.99 in 10.0 mi SSW 15.0 mph 18.4 mph N/A   Overcast
7:35 PM 32.0 °F 21.2 °F 21.2 °F 64% 29.97 in 10.0 mi South 16.1 mph 23.0 mph N/A   Overcast
7:55 PM 33.8 °F 24.8 °F 23.0 °F 65% 29.97 in 10.0 mi South 12.7 mph 23.0 mph N/A   Mostly Cloudy
8:15 PM 33.8 °F 23.2 °F 23.0 °F 65% 29.97 in 10.0 mi SSW 17.3 mph 23.0 mph N/A   Partly Cloudy
8:35 PM 33.8 °F 24.3 °F 24.8 °F 70% 29.96 in 10.0 mi SSW 13.8 mph 21.9 mph N/A   Clear
8:55 PM 33.8 °F 24.8 °F 24.8 °F 70% 29.96 in 10.0 mi SSW 12.7 mph 18.4 mph N/A   Clear
9:15 PM 33.8 °F 24.8 °F 24.8 °F 70% 29.96 in 10.0 mi SSW 12.7 mph 18.4 mph N/A   Clear
9:35 PM 33.8 °F 24.3 °F 24.8 °F 70% 29.95 in 10.0 mi SSW 13.8 mph 18.4 mph N/A   Partly Cloudy
9:55 PM 35.6 °F 26.2 °F 24.8 °F 65% 29.94 in 10.0 mi SSW 15.0 mph 19.6 mph N/A   Mostly Cloudy
10:15 PM 35.6 °F 27.5 °F 24.8 °F 65% 29.94 in 10.0 mi SSW 11.5 mph 21.9 mph N/A   Scattered Clouds
10:35 PM 35.6 °F 26.6 °F 24.8 °F 65% 29.93 in 10.0 mi SSW 13.8 mph 19.6 mph N/A   Clear
10:55 PM 35.6 °F 27.1 °F 26.6 °F 70% 29.92 in 10.0 mi SSW 12.7 mph 25.3 mph N/A   Clear
11:15 PM 35.6 °F 25.5 °F 26.6 °F 70% 29.91 in 10.0 mi SW 17.3 mph 23.0 mph N/A   Clear
11:35 PM 35.6 °F 27.1 °F 26.6 °F 70% 29.91 in 10.0 mi SW 12.7 mph 23.0 mph N/A   Scattered Clouds
11:55 PM 35.6 °F 25.9 °F 26.6 °F 70% 29.90 in 10.0 mi SSW 16.1 mph 21.9 mph N/A   Partly Cloudy